Date String (YYYY-MM-DD hh:mm:ss) UTC,Instrument flags,Ambient pressure (hPa),Sample flow (lpm),Bypass flow (lpm),Sample temperature (°C),Ambient temperature (°C),ASC tube jacket temperature (°C),LED temperature (°C),Box temperature (°C),Sample RH (%),Span deviation,Mass concentration (μg/m³),Mass concentration (μg/m³),Mass concentration (μg/m³)
DateTimeUTC,F1_M11,P_M11,Q1_M11,Q2_M11,T1_M11,T2_M11,T3_M11,T4_M11,T5_M11,U1_M11,ZSPAN_M11,X0_M11,X2_M11,X1_M11
2022-11-30 17:00:00,,0826.9,5.01,0.00,22.7,21.5,00.0,31.5,24.6,07.5,0000.0,0010.97,0006.42,0006.07
2022-11-30 17:01:00,,0826.7,4.99,0.00,22.7,21.5,00.0,31.5,24.6,07.4,0000.0,0010.65,0006.47,0006.11
2022-11-30 17:02:00,,0826.8,4.98,0.00,22.7,21.5,00.0,31.5,24.5,07.5,0000.0,0010.76,0006.53,0006.12
2022-11-30 17:03:00,,0826.7,5.01,0.00,22.7,21.5,00.0,31.5,24.5,07.6,0000.0,0010.81,0006.56,0006.13
2022-11-30 17:04:00,,0826.8,5.01,0.00,22.7,21.5,00.0,31.5,24.6,07.6,0000.0,0010.88,0006.57,0006.14
2022-11-30 17:05:00,,0826.7,4.99,0.00,22.8,21.5,00.0,31.5,24.6,07.5,0000.0,0011.08,0006.60,0006.15
2022-11-30 17:06:00,,0826.7,5.00,0.00,22.8,21.5,00.0,31.5,24.6,07.6,0000.0,0011.22,0006.61,0006.16
2022-11-30 17:07:00,,0826.6,5.01,0.00,22.8,21.5,00.0,31.5,24.6,07.6,0000.0,0011.25,0006.62,0006.17
2022-11-30 17:08:00,,0826.7,4.98,0.00,22.8,21.6,00.0,31.6,24.6,07.6,0000.0,0011.04,0006.64,0006.18
2022-11-30 17:09:00,,0826.7,5.00,0.00,22.8,21.6,00.0,31.6,24.6,07.5,0000.0,0010.91,0006.64,0006.19
2022-11-30 17:10:00,,0826.6,5.00,0.00,22.8,21.6,00.0,31.6,24.6,07.6,0000.0,0010.80,0006.63,0006.20
2022-11-30 17:11:00,,0826.6,5.02,0.00,22.8,21.6,00.0,31.6,24.6,07.7,0000.0,0010.80,0006.65,0006.22
2022-11-30 17:12:00,,0826.6,4.99,0.00,22.8,21.6,00.0,31.6,24.6,07.9,0000.0,0010.89,0006.71,0006.26
2022-11-30 17:13:00,,0826.7,4.99,0.00,22.8,21.6,00.0,31.6,24.6,07.7,0000.0,0010.74,0006.68,0006.29
2022-11-30 17:14:00,,0826.7,5.01,0.00,22.8,21.6,00.0,31.6,24.7,07.6,0000.0,0010.68,0006.66,0006.30
2022-11-30 17:15:00,,0826.8,5.01,0.00,22.8,21.6,00.0,31.6,24.7,07.7,0000.0,0010.66,0006.66,0006.31
2022-11-30 17:16:00,,0826.8,5.00,0.00,22.8,21.6,00.0,31.6,24.7,08.2,0000.0,0010.57,0006.76,0006.43
2022-11-30 17:17:00,,0826.7,4.99,0.00,22.8,21.6,00.0,31.6,24.7,08.2,0000.0,0010.77,0006.85,0006.53
2022-11-30 17:18:00,,0826.6,5.00,0.00,22.8,21.6,00.0,31.6,24.7,08.3,0000.0,0011.09,0007.00,0006.68
2022-11-30 17:19:00,,0826.6,5.00,0.00,22.9,21.6,00.0,31.6,24.7,08.1,0000.0,0011.44,0007.15,0006.84
2022-11-30 17:20:00,,0826.7,5.00,0.00,22.9,21.7,00.0,31.6,24.7,08.2,0000.0,0011.59,0007.30,0006.99
2022-11-30 17:21:00,,0826.5,4.99,0.00,22.9,21.7,00.0,31.7,24.7,08.2,0000.0,0011.52,0007.50,0007.19
2022-11-30 17:22:00,,0826.5,5.01,0.00,22.9,21.7,00.0,31.7,24.8,08.1,0000.0,0012.63,0007.67,0007.33
2022-11-30 17:23:00,,0826.5,5.01,0.00,22.9,21.6,00.0,31.7,24.8,08.2,0000.0,0013.36,0007.85,0007.50
2022-11-30 17:24:00,,0826.5,5.00,0.00,22.8,21.6,00.0,31.7,24.7,08.1,0000.0,0013.59,0008.03,0007.66
2022-11-30 17:25:00,,0826.5,4.99,0.00,22.8,21.6,00.0,31.7,24.7,08.3,0000.0,0013.82,0008.21,0007.82
2022-11-30 17:26:00,,0826.5,4.98,0.00,22.8,21.6,00.0,31.7,24.7,08.4,0000.0,0014.17,0008.41,0008.00
2022-11-30 17:27:00,,0826.6,5.00,0.00,22.8,21.6,00.0,31.7,24.6,08.2,0000.0,0014.32,0008.52,0008.10
2022-11-30 17:28:00,,0826.6,5.00,0.00,22.9,21.6,00.0,31.7,24.7,08.2,0000.0,0014.34,0008.63,0008.18
2022-11-30 17:29:00,,0826.5,5.01,0.00,22.9,21.7,00.0,31.7,24.8,08.2,0000.0,0014.27,0008.72,0008.25
2022-11-30 17:30:00,,0826.5,5.01,0.00,22.9,21.7,00.0,31.7,24.8,08.2,0000.0,0014.24,0008.78,0008.29
2022-11-30 17:31:00,,0826.5,5.00,0.00,22.9,21.6,00.0,31.7,24.7,08.0,0000.0,0014.06,0008.83,0008.32
2022-11-30 17:32:00,,0826.5,5.00,0.00,22.9,21.6,00.0,31.7,24.8,08.0,0000.0,0013.97,0008.81,0008.30
2022-11-30 17:33:00,,0826.7,4.99,0.00,22.9,21.6,00.0,31.7,24.8,08.0,0000.0,0014.02,0008.78,0008.28
2022-11-30 17:34:00,,0826.7,4.99,0.00,22.9,21.6,00.0,31.7,24.8,07.8,0000.0,0013.42,0008.75,0008.26
2022-11-30 17:35:00,,0826.6,5.00,0.00,22.9,21.6,00.0,31.7,24.7,07.9,0000.0,0013.51,0008.74,0008.26
2022-11-30 17:36:00,,0826.5,5.00,0.00,22.9,21.6,00.0,31.7,24.6,08.2,0000.0,0013.56,0008.76,0008.28
2022-11-30 17:37:00,,0826.6,5.00,0.00,22.9,21.6,00.0,31.7,24.6,08.1,0000.0,0013.56,0008.82,0008.34
2022-11-30 17:38:00,,0826.5,5.00,0.00,22.9,21.6,00.0,31.7,24.7,08.0,0000.0,0013.66,0008.87,0008.40
2022-11-30 17:39:00,,0826.5,5.02,0.00,22.9,21.6,00.0,31.7,24.7,08.1,0000.0,0013.79,0008.90,0008.43
2022-11-30 17:40:00,,0826.4,5.00,0.00,22.9,21.6,00.0,31.7,24.7,08.1,0000.0,0014.07,0008.91,0008.45
2022-11-30 17:41:00,,0826.4,4.99,0.00,22.9,21.6,00.0,31.7,24.8,08.0,0000.0,0014.12,0008.94,0008.48
2022-11-30 17:42:00,,0826.2,4.99,0.00,22.9,21.6,00.0,31.7,24.7,08.0,0000.0,0014.49,0008.99,0008.54
2022-11-30 17:43:00,,0826.2,5.00,0.00,22.9,21.6,00.0,31.7,24.7,08.0,0000.0,0014.61,0009.09,0008.63
2022-11-30 17:44:00,,0826.4,5.01,0.00,22.9,21.6,00.0,31.7,24.7,08.0,0000.0,0013.89,0009.15,0008.71
2022-11-30 17:45:00,,0826.5,5.00,0.00,22.9,21.6,00.0,31.7,24.7,08.0,0000.0,0013.94,0009.18,0008.76
2022-11-30 17:46:00,,0826.5,5.00,0.00,22.8,21.6,00.0,31.7,24.6,08.0,0000.0,0013.79,0009.15,0008.75
2022-11-30 17:47:00,,0826.5,5.00,0.00,22.8,21.6,00.0,31.7,24.6,08.1,0000.0,0013.97,0009.18,0008.77
2022-11-30 17:48:00,,0826.4,5.00,0.00,22.9,21.6,00.0,31.7,24.7,08.2,0000.0,0014.52,0009.20,0008.76
2022-11-30 17:49:00,,0826.3,5.01,0.00,22.9,21.7,00.0,31.7,24.7,08.0,0000.0,0014.50,0009.16,0008.71
2022-11-30 17:50:00,,0826.2,5.00,0.00,22.9,21.7,00.0,31.7,24.8,08.1,0000.0,0014.34,0009.11,0008.68
2022-11-30 17:51:00,,0826.2,5.00,0.00,22.9,21.7,00.0,31.7,24.8,08.1,0000.0,0014.00,0009.10,0008.65
2022-11-30 17:52:00,,0826.2,5.00,0.00,22.9,21.7,00.0,31.8,24.8,08.0,0000.0,0013.86,0009.05,0008.64
2022-11-30 17:53:00,,0826.3,4.99,0.00,22.9,21.7,00.0,31.8,24.7,08.1,0000.0,0013.91,0008.99,0008.60
2022-11-30 17:54:00,,0826.4,5.00,0.00,22.9,21.7,00.0,31.8,24.7,08.1,0000.0,0014.32,0008.91,0008.56
2022-11-30 17:55:00,,0826.3,4.99,0.00,22.9,21.7,00.0,31.8,24.7,08.0,0000.0,0014.29,0008.90,0008.55
2022-11-30 17:56:00,,0826.3,5.00,0.00,22.9,21.7,00.0,31.8,24.7,08.0,0000.0,0014.23,0008.97,0008.57
2022-11-30 17:57:00,,0826.4,5.01,0.00,22.9,21.7,00.0,31.8,24.7,08.0,0000.0,0014.47,0009.03,0008.62
2022-11-30 17:58:00,,0826.3,5.01,0.00,22.9,21.7,00.0,31.8,24.8,08.1,0000.0,0014.41,0009.05,0008.65
2022-11-30 17:59:00,,0826.2,5.00,0.00,22.9,21.7,00.0,31.8,24.8,08.0,0000.0,0014.54,0009.04,0008.66
